TimeEDT,TemperatureF,Dew PointF,Humidity,Sea Level PressureIn,VisibilityMPH,Wind Direction,Wind SpeedMPH,Gust SpeedMPH,PrecipitationIn,Events,Conditions,WindDirDegrees,DateUTC
12:56 AM,46.0,35.1,66,30.06,10.0,East,8.1,-,N/A,,Overcast,90,2013-04-12 04:56:00
1:56 AM,46.9,35.1,63,30.04,10.0,Variable,6.9,-,N/A,,Overcast,0,2013-04-12 05:56:00
2:56 AM,46.0,37.0,71,30.04,10.0,East,8.1,23.0,N/A,,Overcast,100,2013-04-12 06:56:00
3:56 AM,46.0,35.1,66,30.02,10.0,Variable,5.8,-,0.00,Rain,Light Rain,0,2013-04-12 07:56:00
4:56 AM,44.1,35.1,71,30.02,9.0,East,8.1,-,0.00,Rain,Light Rain,90,2013-04-12 08:56:00
5:39 AM,44.6,35.6,71,30.02,10.0,East,9.2,17.3,0.00,,Overcast,90,2013-04-12 09:39:00
5:56 AM,45.0,34.0,65,30.01,10.0,Variable,4.6,19.6,0.00,,Overcast,0,2013-04-12 09:56:00
6:16 AM,44.6,32.0,61,30.00,10.0,East,10.4,28.8,N/A,,Overcast,90,2013-04-12 10:16:00
6:56 AM,45.0,32.0,60,29.99,10.0,East,12.7,26.5,N/A,,Overcast,100,2013-04-12 10:56:00
7:56 AM,43.0,34.0,71,29.98,10.0,East,11.5,29.9,0.00,,Overcast,80,2013-04-12 11:56:00
8:56 AM,43.0,34.0,71,29.95,10.0,East,12.7,29.9,0.00,Rain,Light Rain,90,2013-04-12 12:56:00
9:28 AM,41.0,35.6,81,29.94,2.0,East,11.5,26.5,0.03,Rain,Light Rain,100,2013-04-12 13:28:00
9:36 AM,41.0,35.6,81,29.93,3.0,East,12.7,26.5,0.03,Rain,Light Rain,90,2013-04-12 13:36:00
9:49 AM,41.0,35.6,81,29.93,6.0,East,12.7,26.5,0.03,Rain,Light Rain,90,2013-04-12 13:49:00
9:56 AM,41.0,36.0,82,29.92,7.0,East,15.0,34.5,0.03,Rain,Light Rain,90,2013-04-12 13:56:00
10:17 AM,41.0,37.4,87,29.92,1.5,East,18.4,29.9,0.04,Rain,Rain,90,2013-04-12 14:17:00
10:56 AM,39.9,37.0,89,29.92,2.5,East,12.7,25.3,0.11,Rain,Light Rain,90,2013-04-12 14:56:00
11:10 AM,39.2,37.4,93,29.92,1.2,East,17.3,32.2,0.06,Rain,Heavy Rain,90,2013-04-12 15:10:00
11:37 AM,39.2,37.4,93,29.92,2.5,East,10.4,25.3,0.17,Rain,Light Rain,90,2013-04-12 15:37:00
11:56 AM,41.0,37.9,89,29.91,1.8,East,12.7,26.5,0.20,Rain,Rain,90,2013-04-12 15:56:00
12:08 PM,41.0,37.4,87,29.90,2.0,East,8.1,24.2,0.03,Rain,Light Rain,80,2013-04-12 16:08:00
12:27 PM,41.0,39.2,93,29.89,3.0,East,8.1,21.9,0.06,Rain,Light Rain,80,2013-04-12 16:27:00
12:56 PM,41.0,39.0,93,29.89,4.0,East,8.1,21.9,0.10,Rain,Light Rain,90,2013-04-12 16:56:00
1:27 PM,42.8,39.2,87,29.85,6.0,East,11.5,23.0,0.03,Rain,Light Rain,80,2013-04-12 17:27:00
1:56 PM,41.0,39.0,93,29.82,6.0,East,8.1,19.6,0.05,Rain,Light Rain,80,2013-04-12 17:56:00
2:56 PM,43.0,39.9,89,29.79,10.0,Variable,6.9,-,0.04,Rain,Light Rain,0,2013-04-12 18:56:00
3:20 PM,42.8,39.2,87,29.77,1.8,ENE,8.1,-,0.04,Rain,Rain,70,2013-04-12 19:20:00
3:52 PM,42.8,41.0,93,29.75,3.0,Variable,4.6,-,0.13,Rain,Light Rain,0,2013-04-12 19:52:00
3:53 PM,43.0,41.0,93,29.75,3.0,NNE,5.8,-,0.14,Rain,Light Rain,30,2013-04-12 19:53:00
4:05 PM,42.8,41.0,93,29.75,1.8,Variable,5.8,-,0.03,Rain,Rain,0,2013-04-12 20:05:00
4:16 PM,42.8,41.0,93,29.74,3.0,Variable,5.8,-,0.04,Rain,Light Rain,0,2013-04-12 20:16:00
4:53 PM,42.8,41.0,93,29.74,2.5,Variable,5.8,-,0.08,Rain,Light Rain,0,2013-04-12 20:53:00
4:56 PM,43.0,41.0,93,29.74,3.0,Variable,6.9,-,0.08,Rain,Light Rain,0,2013-04-12 20:56:00
5:56 PM,43.0,41.0,93,29.73,10.0,Variable,5.8,-,0.02,Rain,Light Rain,0,2013-04-12 21:56:00
6:56 PM,42.1,39.9,92,29.73,7.0,Variable,4.6,-,0.04,Rain,Light Rain,0,2013-04-12 22:56:00
7:56 PM,42.1,39.0,89,29.72,10.0,NNE,10.4,16.1,0.01,,Overcast,20,2013-04-12 23:56:00
8:56 PM,41.0,39.0,93,29.73,10.0,NNE,6.9,-,0.00,,Overcast,20,2013-04-13 00:56:00
9:56 PM,41.0,37.9,89,29.73,10.0,North,8.1,-,0.00,,Overcast,10,2013-04-13 01:56:00
10:56 PM,39.9,37.9,93,29.74,4.0,NNE,8.1,-,0.00,,Overcast,20,2013-04-13 02:56:00
11:56 PM,39.9,37.9,93,29.74,9.0,North,8.1,-,N/A,,Overcast,10,2013-04-13 03:56:00